�������ċp�F�����K�X���j�^�v���󋵏��
Date,Time,�ċp�F�����K�X���j�^(cps),����,����(m/s)
2022/09/16,00:00,1.4,��쐼,3.4
2022/09/16,00:10,1.5,��쐼,3.8
2022/09/16,00:20,1.5,��쐼,5.1
2022/09/16,00:30,1.4,��쐼,5.6
2022/09/16,00:40,1.4,��,5.9
2022/09/16,00:50,1.5,��,5.9
2022/09/16,01:00,1.4,��,6.1
2022/09/16,01:10,1.5,��,5.9
2022/09/16,01:20,1.4,��,6.2
2022/09/16,01:30,1.5,��,5.8
2022/09/16,01:40,1.4,��,5.4
2022/09/16,01:50,1.5,��,5.2
2022/09/16,02:00,1.4,��,4.7
2022/09/16,02:10,1.4,��,3.6
2022/09/16,02:20,1.5,��,3.9
2022/09/16,02:30,1.5,��,4.2
2022/09/16,02:40,1.4,��,4.4
2022/09/16,02:50,1.5,��,4.5
2022/09/16,03:00,1.5,��,3.9
2022/09/16,03:10,1.4,��쐼,3.7
2022/09/16,03:20,1.4,��쐼,3.6
2022/09/16,03:30,1.4,��,3.2
2022/09/16,03:40,1.5,��,3.6
2022/09/16,03:50,1.5,��,4.5
2022/09/16,04:00,1.4,��,5.1
2022/09/16,04:10,1.5,��,4.4
2022/09/16,04:20,1.5,��,3.9
2022/09/16,04:30,1.4,��,4.8
2022/09/16,04:40,1.4,��,5.2
2022/09/16,04:50,1.5,��,5.1
2022/09/16,05:00,1.4,��,5.5
2022/09/16,05:10,1.5,��,5.4
2022/09/16,05:20,1.5,��,5.4
2022/09/16,05:30,1.4,��,5.7
2022/09/16,05:40,1.4,��,6.0
2022/09/16,05:50,1.4,��,5.4
2022/09/16,06:00,1.4,��쐼,4.3
2022/09/16,06:10,1.5,��쐼,4.2
2022/09/16,06:20,1.4,��,4.5
2022/09/16,06:30,1.4,��,4.1
2022/09/16,06:40,1.5,��쓌,4.8
2022/09/16,06:50,1.5,��쓌,5.0
2022/09/16,07:00,1.4,��,4.6
2022/09/16,07:10,1.5,��,3.3
2022/09/16,07:20,1.4,��,4.2
2022/09/16,07:30,1.4,��,3.5
2022/09/16,07:40,1.4,��쓌,4.1
2022/09/16,07:50,1.4,��쓌,3.7
2022/09/16,08:00,1.4,��쓌,4.8
2022/09/16,08:10,1.4,��쓌,5.6
2022/09/16,08:20,1.4,��쓌,6.1
2022/09/16,08:30,1.5,��쓌,6.7
2022/09/16,08:40,1.5,��쓌,5.3
2022/09/16,08:50,1.4,��쓌,5.8
2022/09/16,09:00,1.3,��쓌,5.5
2022/09/16,09:10,1.5,��쓌,6.0
2022/09/16,09:20,1.5,��쓌,5.9
2022/09/16,09:30,1.4,��쓌,5.1
2022/09/16,09:40,1.5,��쓌,6.4
2022/09/16,09:50,1.4,��쓌,6.5
2022/09/16,10:00,1.4,��쓌,8.4
2022/09/16,10:10,1.4,��쓌,8.4
2022/09/16,10:20,1.4,��쓌,7.1
2022/09/16,10:30,1.5,��쓌,7.8
2022/09/16,10:40,1.4,��쓌,8.3
2022/09/16,10:50,1.4,��쓌,7.6
2022/09/16,11:00,1.4,��쓌,7.1
2022/09/16,11:10,1.5,��쓌,7.4
2022/09/16,11:20,1.5,��쓌,8.1
2022/09/16,11:30,1.5,��쓌,7.4
2022/09/16,11:40,1.4,��쓌,8.2
2022/09/16,11:50,1.5,��쓌,7.7
2022/09/16,12:00,1.5,��쓌,8.5
2022/09/16,12:10,1.5,��쓌,8.3
2022/09/16,12:20,1.4,��쓌,8.7
2022/09/16,12:30,1.4,��쓌,7.6
2022/09/16,12:40,1.4,��쓌,7.8
2022/09/16,12:50,1.5,��쓌,7.4
2022/09/16,13:00,1.4,��쓌,9.4
2022/09/16,13:10,1.5,��쓌,9.2
2022/09/16,13:20,1.5,��쓌,9.6
2022/09/16,13:30,1.5,��쓌,8.7
2022/09/16,13:40,1.4,��쓌,8.5
2022/09/16,13:50,1.5,��쓌,10.3
2022/09/16,14:00,1.4,��쓌,10.3
2022/09/16,14:10,1.4,��쓌,11.0
2022/09/16,14:20,1.4,��쓌,10.2
2022/09/16,14:30,1.4,��쓌,9.6
2022/09/16,14:40,1.5,��쓌,9.6
2022/09/16,14:50,1.5,��쓌,10.2
2022/09/16,15:00,1.4,��쓌,9.5
2022/09/16,15:10,1.4,��쓌,9.6
2022/09/16,15:20,1.4,��쓌,9.9
2022/09/16,15:30,1.5,��쓌,9.8
2022/09/16,15:40,1.4,��쓌,9.3
2022/09/16,15:50,1.4,��쓌,9.5
2022/09/16,16:00,1.4,��쓌,9.7
2022/09/16,16:10,1.5,��,8.9
2022/09/16,16:20,1.4,��쓌,10.6
2022/09/16,16:30,1.5,��,8.5
2022/09/16,16:40,1.4,��,8.4
2022/09/16,16:50,1.3,��,8.1
2022/09/16,17:00,1.5,��,8.1
2022/09/16,17:10,1.4,��,8.0
2022/09/16,17:20,1.4,��,8.5
2022/09/16,17:30,1.4,��,8.1
2022/09/16,17:40,1.5,��,8.0
2022/09/16,17:50,1.4,��,8.0
2022/09/16,18:00,1.4,��,7.2
2022/09/16,18:10,1.5,��,7.2
2022/09/16,18:20,1.5,��,6.8
2022/09/16,18:30,1.4,��,7.2
2022/09/16,18:40,1.5,��,7.0
2022/09/16,18:50,1.4,��,7.8
2022/09/16,19:00,1.4,��쐼,7.1
2022/09/16,19:10,1.5,��,7.5
2022/09/16,19:20,1.4,��,7.7
2022/09/16,19:30,1.4,��,7.8
2022/09/16,19:40,1.5,��,7.0
2022/09/16,19:50,1.5,��,7.0
2022/09/16,20:00,1.4,��,7.2
2022/09/16,20:10,1.5,��,7.6
2022/09/16,20:20,1.4,��,7.5
2022/09/16,20:30,1.5,��,7.2
2022/09/16,20:40,1.5,��,7.5
2022/09/16,20:50,1.5,��,7.7
2022/09/16,21:00,1.5,��,7.5
2022/09/16,21:10,1.5,��,7.7
2022/09/16,21:20,1.5,��,8.4
2022/09/16,21:30,1.5,��,8.1
2022/09/16,21:40,1.5,��,7.7
2022/09/16,21:50,1.4,��,7.1
2022/09/16,22:00,1.5,��,6.1
2022/09/16,22:10,1.5,��,6.5
2022/09/16,22:20,1.5,��,6.1
2022/09/16,22:30,1.4,��,5.9
2022/09/16,22:40,1.3,��,5.7
2022/09/16,22:50,1.5,��쐼,6.0
2022/09/16,23:00,1.4,��,6.6
2022/09/16,23:10,1.5,��쐼,6.6
2022/09/16,23:20,1.5,��,6.3
2022/09/16,23:30,1.4,��쐼,5.9
2022/09/16,23:40,1.4,��쐼,5.4
2022/09/16,23:50,1.4,��,6.7
